{"data":{"norad_id":53773,"intl_designator":"2022-111A","name":"STARLINK-4718","alt_names":[],"object_type":"PAYLOAD","status":"ACTIVE","operator":null,"country":"US","launch_date":"2022-09-11","launch_site_code":"AFETR","launch_vehicle":null,"mission":null,"orbit_class":"UNKNOWN","rcs_meters":null,"size_class":null,"mass_kg":null,"dimensions":null,"purposes":["comms"],"wikipedia_slug":null,"has_3d_model":false,"image_url":null,"decayed_at":null,"tle_current":{"epoch":"2026-09-20T07:10:26.978304Z","epoch_age_seconds":101859,"freshness":"FRESH","line1":"1 53773U 22111A   26263.29892336  .00000141  00000+0  16308-4 0  9990","line2":"2 53773  53.1597 119.4245 0001199  92.7664 267.3475 15.31703130223372","mean_motion":15.3170313,"eccentricity":0.0001199,"inclination_deg":53.1597,"raan_deg":119.4245,"arg_perigee_deg":92.7664,"mean_anomaly_deg":267.3475,"bstar":1.6308e-5,"rev_number":22337,"period_min":94.012995847309,"perigee_km":469.90948564139,"apogee_km":471.55184410743,"semimajor_km":6848.8676648744,"source":"CELESTRAK","updated_at":"2026-09-21T09:00:32.991074Z"}}}